Location: Rancho Santa Fe Post Office
(33.0184°N, 117.2026°W)
Time: 01:01:17
(UTC+00:00)

Cosmos 2333 Rocket - Pass Details

Date: 10 September 2024
Orbit: 840 x 862 km, 70.8° (Epoch: 06 October)

Event Time Altitude Azimuth Distance (km) Brightness Sun altitude
Rises 12:19:58 0° 335° (NNW) 3,428 5.3 -15.1°
Reaches altitude 10° 12:22:27 10° 332° (NNW) 2,485 4.5 -14.6°
Maximum altitude 12:28:04 63° 253° (WSW) 945 2.2 -13.5°
Drops below altitude 10° 12:33:38 10° 173° (S) 2,456 4.6 -12.4°
Sets 12:36:05 0° 170° (S) 3,385 5.3 -11.9°
